EW2549 Weather Reports


time (UTC)temp
C
wind
direction
speed
KPH
gust
KPH
rain 1hr
cm
rain 24hr
cm
rain mn
cm
humidity
%
barometer
mb
20260504223039 15 316 0.0 9.7 0.00 0.08 0.08 46 1001.1
20260504221535 15 333 6.4 14.5 0.00 0.08 0.08 43 1000.8
20260504220033 16 355 1.6 17.7 0.00 0.08 0.08 39 1000.4
20260504214532 17 59 0.0 20.9 0.00 0.08 0.08 36 999.8
20260504213053 18 24 0.0 12.9 0.00 0.08 0.08 35 999.6
20260504211532 18 103 0.0 0.0 0.00 0.08 0.08 34 999.3
20260504210031 17 91 0.0 0.0 0.00 0.08 0.08 37 999.3
20260504204531 17 83 0.0 6.4 0.00 0.08 0.08 39 999.5
20260504203034 16 109 0.0 0.0 0.00 0.08 0.08 41 999.8
20260504201533 15 184 0.0 0.0 0.08 0.08 0.08 45 1000.3
20260504200030 15 116 3.2 11.3 0.08 0.08 0.08 48 1000.7
20260504194528 13 121 0.0 24.1 0.08 0.08 0.08 54 1000.3
20260504193030 15 207 3.2 17.7 0.08 0.08 0.08 50 1000.3
20260504191526 19 185 9.7 22.5 0.00 0.00 0.00 26 1000.1
20260504190027 20 220 0.0 0.0 0.00 0.00 0.00 21 999.3
20260504184524 20 244 1.6 12.9 0.00 0.00 0.00 20 999.2
20260504183025 20 328 0.0 14.5 0.00 0.00 0.00 22 999.2
20260504181523 20 349 0.0 0.0 0.00 0.00 0.00 23 999.2
20260504180020 20 306 0.0 11.3 0.00 0.00 0.00 24 999.6
20260504174518 21 272 1.6 17.7 0.00 0.00 0.00 22 999.7
20260504173026 21 311 8.0 22.5 0.00 0.00 0.00 23 1000.1
20260504171519 21 337 1.6 19.3 0.00 0.00 0.00 23 1000.2
20260504081501 8 327 0.0 0.0 0.00 0.00 0.00 42 1001.9
20260504044538 15 262 0.0 9.7 0.00 0.00 0.00 27 1002.7
20260504043033 15 248 0.0 9.7 0.00 0.00 0.00 27 1002.8
20260504041528 15 234 0.0 0.0 0.00 0.00 0.00 28 1002.9
20260504040029 16 235 0.0 0.0 0.00 0.00 0.00 28 1003.3
20260504033036 16 251 9.7 19.3 0.00 0.00 0.00 28 1003.3
20260504031526 15 224 0.0 0.0 0.00 0.00 0.00 29 1003.3
20260504030025 16 224 0.0 0.0 0.00 0.00 0.00 29 1003.3
20260504024524 16 200 0.0 0.0 0.00 0.00 0.00 29 1003.2
20260504023024 16 198 0.0 0.0 0.00 0.00 0.00 30 1003.3
20260504021532 16 244 3.2 11.3 0.00 0.00 0.00 29 1003.3
20260504020026 16 182 0.0 0.0 0.00 0.00 0.00 29 1003.1
20260504014523 17 31 0.0 0.0 0.00 0.00 0.00 27 1002.9
20260504013032 18 31 0.0 0.0 0.00 0.00 0.00 27 1002.8
20260504011522 18 31 0.0 0.0 0.00 0.00 0.00 27 1002.8
20260504010021 18 350 0.0 0.0 0.00 0.00 0.00 26 1002.8
20260504004521 18 37 0.0 0.0 0.00 0.00 0.00 25 1002.9
20260504003020 18 42 0.0 0.0 0.00 0.00 0.00 26 1002.8
20260504001520 18 360 0.0 0.0 0.00 0.00 0.00 25 1003.0
20260504000020 18 348 0.0 0.0 0.00 0.00 0.00 26 1003.0
20260503234519 19 348 0.0 0.0 0.00 0.00 0.00 25 1003.3
20260503233018 20 23 0.0 0.0 0.00 0.00 0.00 24 1003.0
20260503231518 20 350 0.0 17.7 0.00 0.00 0.00 23 1002.7
20260503230017 20 277 0.0 0.0 0.00 0.00 0.00 20 1002.9
20260503224515 20 236 0.0 0.0 0.00 0.00 0.00 19 1002.9